Time,TemperatureF,DewpointF,PressureIn,WindDirection,WindDirectionDegrees,WindSpeedMPH,WindSpeedGustMPH,Humidity,HourlyPrecipIn,Conditions,Clouds,dailyrainin,SoftwareType,DateUTC
2013-04-14 10:17:00,47.9,44.2,29.42,SSE,162,6.0,6.0,87,0.00,,---,0.01,VWS V14.01,2013-04-14 15:17:00,
2013-04-14 10:22:00,47.1,43.1,29.43,SSE,168,13.0,17.0,86,0.11,,---,0.01,VWS V14.01,2013-04-14 15:22:00,
2013-04-14 10:27:00,46.6,42.9,29.43,SE,146,7.0,17.0,87,0.11,,---,0.01,VWS V14.01,2013-04-14 15:27:00,
2013-04-14 10:32:00,46.4,43.0,29.42,SE,141,10.0,17.0,88,0.11,,---,0.01,VWS V14.01,2013-04-14 15:32:00,
2013-04-14 10:37:00,46.3,43.0,29.41,SE,138,8.0,12.0,88,0.00,,---,0.01,VWS V14.01,2013-04-14 15:37:00,
2013-04-14 10:42:00,46.7,43.6,29.41,ESE,120,6.0,12.0,89,0.00,,---,0.01,VWS V14.01,2013-04-14 15:42:00,
2013-04-14 10:47:00,47.2,44.1,29.43,SSE,168,7.0,12.0,89,0.00,,---,0.01,VWS V14.01,2013-04-14 15:47:00,
2013-04-14 10:52:00,47.8,44.1,29.44,ESE,121,6.0,20.0,87,0.00,,---,0.01,VWS V14.01,2013-04-14 15:52:00,
2013-04-14 10:57:00,48.1,44.1,29.44,SE,143,10.0,20.0,86,0.00,,---,0.01,VWS V14.01,2013-04-14 15:57:00,
2013-04-14 11:03:00,48.3,44.6,29.44,ESE,115,10.0,20.0,87,0.00,,---,0.01,VWS V14.01,2013-04-14 16:03:00,
2013-04-14 11:08:00,48.1,44.1,29.44,SE,139,6.0,18.0,86,0.00,,---,0.01,VWS V14.01,2013-04-14 16:08:00,
2013-04-14 11:13:00,48.1,44.4,29.44,ESE,112,6.0,18.0,87,0.00,,---,0.01,VWS V14.01,2013-04-14 16:13:00,
2013-04-14 11:18:00,48.3,44.6,29.45,SE,137,7.0,18.0,87,0.00,,---,0.01,VWS V14.01,2013-04-14 16:18:00,
2013-04-14 11:23:00,48.6,45.2,29.45,SE,141,12.0,18.0,88,0.00,,---,0.01,VWS V14.01,2013-04-14 16:23:00,
2013-04-14 11:28:00,49.1,45.4,29.45,SE,142,10.0,21.0,87,0.00,,---,0.01,VWS V14.01,2013-04-14 16:28:00,
2013-04-14 11:33:00,49.7,45.7,29.45,SE,129,15.0,21.0,86,0.00,,---,0.01,VWS V14.01,2013-04-14 16:33:00,
2013-04-14 11:38:00,50.3,46.3,29.45,SE,127,6.0,15.0,86,0.00,,---,0.01,VWS V14.01,2013-04-14 16:38:00,
2013-04-14 11:43:00,51.2,46.5,29.45,SE,139,9.0,17.0,84,0.00,,---,0.01,VWS V14.01,2013-04-14 16:43:00,
2013-04-14 11:48:00,52.2,46.5,29.46,SSE,149,12.0,19.0,81,0.00,,---,0.01,VWS V14.01,2013-04-14 16:48:00,
2013-04-14 11:53:00,53.0,46.3,29.47,SSE,157,10.0,20.0,78,0.00,,---,0.01,VWS V14.01,2013-04-14 16:53:00,
2013-04-14 11:58:00,53.9,45.8,29.47,SE,127,20.0,20.0,74,0.00,,---,0.01,VWS V14.01,2013-04-14 16:58:00,
2013-04-14 12:03:00,54.8,43.7,29.46,ESE,116,20.0,25.0,66,0.00,,---,0.01,VWS V14.01,2013-04-14 17:03:00,
2013-04-14 12:08:00,55.3,43.8,29.47,South,174,17.0,25.0,65,0.00,,---,0.01,VWS V14.01,2013-04-14 17:08:00,
2013-04-14 12:13:00,55.8,43.4,29.46,SE,143,19.0,25.0,63,0.00,,---,0.01,VWS V14.01,2013-04-14 17:13:00,
2013-04-14 12:18:00,56.1,44.1,29.47,SE,144,16.0,25.0,64,0.00,,---,0.01,VWS V14.01,2013-04-14 17:18:00,
2013-04-14 12:23:00,55.7,43.3,29.48,SW,220,8.0,26.0,63,0.00,,---,0.01,VWS V14.01,2013-04-14 17:23:00,
2013-04-14 12:28:00,55.4,43.4,29.48,East,95,15.0,26.0,64,0.00,,---,0.01,VWS V14.01,2013-04-14 17:28:00,
2013-04-14 12:33:00,55.4,43.4,29.49,ESE,116,14.0,26.0,64,0.00,,---,0.01,VWS V14.01,2013-04-14 17:33:00,
2013-04-14 12:38:00,55.3,42.1,29.48,SSE,165,11.0,23.0,61,0.00,,---,0.01,VWS V14.01,2013-04-14 17:38:00,
2013-04-14 12:43:00,55.3,39.0,29.48,SSE,160,9.0,25.0,54,0.00,,---,0.01,VWS V14.01,2013-04-14 17:43:00,
2013-04-14 12:48:00,55.1,38.8,29.48,SE,144,16.0,25.0,54,0.00,,---,0.01,VWS V14.01,2013-04-14 17:48:00,
2013-04-14 12:53:00,55.0,39.2,29.49,SSE,153,16.0,25.0,55,0.00,,---,0.01,VWS V14.01,2013-04-14 17:53:00,
2013-04-14 12:58:00,55.0,39.2,29.48,SSE,151,16.0,25.0,55,0.00,,---,0.01,VWS V14.01,2013-04-14 17:58:00,
2013-04-14 13:03:00,54.8,39.0,29.50,SE,135,17.0,26.0,55,0.00,,---,0.01,VWS V14.01,2013-04-14 18:03:00,
2013-04-14 13:08:00,54.8,38.0,29.48,SE,132,19.0,21.0,53,0.00,,---,0.01,VWS V14.01,2013-04-14 18:08:00,
2013-04-14 13:13:00,54.9,38.1,29.49,ESE,117,20.0,28.0,53,0.00,,---,0.01,VWS V14.01,2013-04-14 18:13:00,
2013-04-14 13:18:00,54.9,37.1,29.50,SE,142,19.0,28.0,51,0.00,,---,0.01,VWS V14.01,2013-04-14 18:18:00,
2013-04-14 13:23:00,54.7,36.9,29.49,SSE,159,15.0,28.0,51,0.00,,---,0.01,VWS V14.01,2013-04-14 18:23:00,
2013-04-14 13:28:00,54.5,37.7,29.51,SE,142,13.0,28.0,53,0.00,,---,0.01,VWS V14.01,2013-04-14 18:28:00,
2013-04-14 13:33:00,54.1,37.4,29.51,SSE,150,10.0,28.0,53,0.00,,---,0.01,VWS V14.01,2013-04-14 18:33:00,
2013-04-14 13:38:00,54.0,37.8,29.50,ESE,116,11.0,22.0,54,0.00,,---,0.01,VWS V14.01,2013-04-14 18:38:00,
2013-04-14 13:43:00,53.9,37.2,29.50,ESE,116,7.0,22.0,53,0.00,,---,0.01,VWS V14.01,2013-04-14 18:43:00,
2013-04-14 13:48:00,53.7,37.0,29.49,ESE,119,8.0,22.0,53,0.00,,---,0.01,VWS V14.01,2013-04-14 18:48:00,
2013-04-14 13:53:00,53.6,36.9,29.48,SE,126,12.0,22.0,53,0.00,,---,0.01,VWS V14.01,2013-04-14 18:53:00,
2013-04-14 13:58:00,53.5,36.8,29.48,ESE,123,12.0,22.0,53,0.00,,---,0.01,VWS V14.01,2013-04-14 18:58:00,
2013-04-14 14:03:00,53.4,37.2,29.48,SSE,156,10.0,22.0,54,0.00,,---,0.01,VWS V14.01,2013-04-14 19:03:00,
2013-04-14 14:08:00,53.4,36.7,29.50,ESE,111,6.0,17.0,53,0.00,,---,0.01,VWS V14.01,2013-04-14 19:08:00,
2013-04-14 14:13:00,53.7,37.5,29.50,SSE,149,7.0,17.0,54,0.00,,---,0.01,VWS V14.01,2013-04-14 19:13:00,
2013-04-14 14:18:00,54.2,36.5,29.50,ESE,117,8.0,17.0,51,0.00,,---,0.01,VWS V14.01,2013-04-14 19:18:00,
2013-04-14 14:23:00,54.6,37.3,29.50,SE,128,12.0,17.0,52,0.00,,---,0.01,VWS V14.01,2013-04-14 19:23:00,
2013-04-14 14:28:00,55.8,34.8,29.51,SE,132,13.0,27.0,45,0.00,,---,0.01,VWS V14.01,2013-04-14 19:28:00,
2013-04-14 14:33:00,56.5,33.7,29.51,SE,127,17.0,27.0,42,0.00,,---,0.01,VWS V14.01,2013-04-14 19:33:00,
2013-04-14 14:38:00,56.9,34.7,29.51,SE,129,10.0,22.0,43,0.00,,---,0.01,VWS V14.01,2013-04-14 19:38:00,
2013-04-14 14:43:00,57.0,34.2,29.53,SE,132,13.0,22.0,42,0.00,,---,0.01,VWS V14.01,2013-04-14 19:43:00,
2013-04-14 14:48:00,56.9,34.7,29.53,SE,142,11.0,22.0,43,0.00,,---,0.01,VWS V14.01,2013-04-14 19:48:00,
2013-04-14 14:53:00,57.1,34.8,29.53,SE,142,10.0,22.0,43,0.00,,---,0.01,VWS V14.01,2013-04-14 19:53:00,
2013-04-14 14:58:00,57.4,34.5,29.54,SE,130,10.0,22.0,42,0.00,,---,0.01,VWS V14.01,2013-04-14 19:58:00,
2013-04-14 15:03:00,57.2,32.5,29.55,ESE,108,14.0,22.0,39,0.00,,---,0.01,VWS V14.01,2013-04-14 20:03:00,
2013-04-14 15:08:00,56.8,33.4,29.56,SE,134,13.0,20.0,41,0.00,,---,0.01,VWS V14.01,2013-04-14 20:08:00,
2013-04-14 15:13:00,56.7,34.5,29.55,SE,142,11.0,22.0,43,0.00,,---,0.01,VWS V14.01,2013-04-14 20:13:00,
2013-04-14 15:18:00,56.8,33.4,29.56,ESE,110,12.0,23.0,41,0.00,,---,0.01,VWS V14.01,2013-04-14 20:18:00,
2013-04-14 15:23:00,57.1,34.8,29.56,ESE,110,7.0,23.0,43,0.00,,---,0.01,VWS V14.01,2013-04-14 20:23:00,
2013-04-14 15:28:00,57.2,34.3,29.56,SE,127,17.0,23.0,42,0.00,,---,0.01,VWS V14.01,2013-04-14 20:28:00,
2013-04-14 15:33:00,57.1,34.2,29.56,SE,145,14.0,23.0,42,0.00,,---,0.01,VWS V14.01,2013-04-14 20:33:00,
2013-04-14 15:38:00,56.8,34.0,29.56,SE,135,16.0,24.0,42,0.00,,---,0.01,VWS V14.01,2013-04-14 20:38:00,
2013-04-14 15:43:00,56.5,34.3,29.56,SSE,156,10.0,24.0,43,0.00,,---,0.01,VWS V14.01,2013-04-14 20:43:00,
2013-04-14 15:48:00,57.0,34.8,29.56,SSE,163,13.0,24.0,43,0.00,,---,0.01,VWS V14.01,2013-04-14 20:48:00,
2013-04-14 15:53:00,56.7,33.3,29.56,SE,140,15.0,24.0,41,0.00,,---,0.01,VWS V14.01,2013-04-14 20:53:00,
2013-04-14 15:58:00,56.5,34.3,29.56,NW,317,6.0,24.0,43,0.00,,---,0.01,VWS V14.01,2013-04-14 20:58:00,
2013-04-14 16:02:00,57.0,34.8,29.56,SE,133,8.0,24.0,43,0.00,,---,0.01,VWS V14.01,2013-04-14 21:02:00,
2013-04-14 16:08:00,57.5,34.0,29.56,SE,142,17.0,23.0,41,0.00,,---,0.01,VWS V14.01,2013-04-14 21:08:00,
2013-04-14 16:13:00,57.5,34.6,29.56,SE,140,12.0,23.0,42,0.00,,---,0.01,VWS V14.01,2013-04-14 21:13:00,
2013-04-14 16:18:00,56.7,33.9,29.56,SE,132,7.0,25.0,42,0.00,,---,0.01,VWS V14.01,2013-04-14 21:18:00,
2013-04-14 16:23:00,57.1,34.2,29.56,ESE,113,8.0,25.0,42,0.00,,---,0.01,VWS V14.01,2013-04-14 21:23:00,
2013-04-14 16:28:00,57.4,32.0,29.56,SE,146,19.0,25.0,38,0.00,,---,0.01,VWS V14.01,2013-04-14 21:28:00,
2013-04-14 16:33:00,57.6,33.5,29.57,ESE,122,9.0,25.0,40,0.00,,---,0.01,VWS V14.01,2013-04-14 21:33:00,
2013-04-14 16:38:00,57.6,32.2,29.57,SE,142,7.0,23.0,38,0.00,,---,0.01,VWS V14.01,2013-04-14 21:38:00,
2013-04-14 16:43:00,57.6,30.2,29.58,SSE,149,12.0,24.0,35,0.00,,---,0.01,VWS V14.01,2013-04-14 21:43:00,
2013-04-14 16:48:00,57.6,30.2,29.57,SSE,147,5.0,24.0,35,0.00,,---,0.01,VWS V14.01,2013-04-14 21:48:00,
2013-04-14 16:53:00,57.6,28.7,29.58,SE,144,21.0,27.0,33,0.00,,---,0.01,VWS V14.01,2013-04-14 21:53:00,
2013-04-14 16:58:00,56.5,29.2,29.58,SE,130,20.0,27.0,35,0.00,,---,0.01,VWS V14.01,2013-04-14 21:58:00,
2013-04-14 17:03:00,55.7,29.9,29.59,South,177,19.0,27.0,37,0.00,,---,0.01,VWS V14.01,2013-04-14 22:03:00,
2013-04-14 17:08:00,55.9,30.7,29.59,SSW,210,11.0,26.0,38,0.00,,---,0.01,VWS V14.01,2013-04-14 22:08:00,
2013-04-14 17:13:00,56.2,30.3,29.59,South,170,12.0,26.0,37,0.00,,---,0.01,VWS V14.01,2013-04-14 22:13:00,
2013-04-14 17:18:00,56.6,29.3,29.59,SSE,168,15.0,26.0,35,0.00,,---,0.01,VWS V14.01,2013-04-14 22:18:00,
2013-04-14 17:23:00,56.1,28.8,29.60,SSE,149,12.0,26.0,35,0.00,,---,0.01,VWS V14.01,2013-04-14 22:23:00,
2013-04-14 17:28:00,56.2,28.9,29.60,SE,124,16.0,27.0,35,0.00,,---,0.01,VWS V14.01,2013-04-14 22:28:00,
2013-04-14 17:33:00,56.3,29.0,29.61,South,175,10.0,27.0,35,0.00,,---,0.01,VWS V14.01,2013-04-14 22:33:00,
2013-04-14 17:38:00,56.4,30.5,29.62,SSE,149,17.0,22.0,37,0.00,,---,0.01,VWS V14.01,2013-04-14 22:38:00,
2013-04-14 17:43:00,56.1,29.5,29.62,SSE,149,15.0,22.0,36,0.00,,---,0.01,VWS V14.01,2013-04-14 22:43:00,
2013-04-14 17:48:00,55.6,29.1,29.62,SSE,162,10.0,22.0,36,0.00,,---,0.01,VWS V14.01,2013-04-14 22:48:00,
2013-04-14 17:53:00,55.3,28.8,29.62,SE,138,20.0,22.0,36,0.00,,---,0.01,VWS V14.01,2013-04-14 22:53:00,
2013-04-14 17:58:00,54.9,27.8,29.63,SSE,156,7.0,26.0,35,0.00,,---,0.01,VWS V14.01,2013-04-14 22:58:00,
2013-04-14 18:03:00,55.4,27.5,29.64,SSE,149,16.0,31.0,34,0.00,,---,0.01,VWS V14.01,2013-04-14 23:03:00,
2013-04-14 18:08:00,56.1,28.8,29.64,East,94,13.0,23.0,35,0.00,,---,0.01,VWS V14.01,2013-04-14 23:08:00,
2013-04-14 18:13:00,56.0,26.6,29.65,ESE,123,7.0,28.0,32,0.00,,---,0.01,VWS V14.01,2013-04-14 23:13:00,
2013-04-14 18:18:00,55.7,28.5,29.64,SSE,154,20.0,28.0,35,0.00,,---,0.01,VWS V14.01,2013-04-14 23:18:00,
2013-04-14 18:23:00,55.8,27.9,29.65,SE,137,12.0,28.0,34,0.00,,---,0.01,VWS V14.01,2013-04-14 23:23:00,
2013-04-14 18:28:00,55.5,27.6,29.65,SE,130,23.0,28.0,34,0.00,,---,0.01,VWS V14.01,2013-04-14 23:28:00,
2013-04-14 18:33:00,54.8,27.7,29.66,ESE,115,12.0,28.0,35,0.00,,---,0.01,VWS V14.01,2013-04-14 23:33:00,
2013-04-14 18:38:00,54.4,29.3,29.66,SSE,151,8.0,24.0,38,0.00,,---,0.01,VWS V14.01,2013-04-14 23:38:00,
2013-04-14 18:43:00,54.1,27.1,29.66,SE,145,6.0,24.0,35,0.00,,---,0.01,VWS V14.01,2013-04-14 23:43:00,
2013-04-14 18:48:00,53.9,28.2,29.67,SE,134,18.0,24.0,37,0.00,,---,0.01,VWS V14.01,2013-04-14 23:48:00,
2013-04-14 18:53:00,53.8,28.8,29.66,SSE,168,10.0,24.0,38,0.00,,---,0.01,VWS V14.01,2013-04-14 23:53:00,
2013-04-14 18:58:00,54.2,29.8,29.68,SE,138,16.0,24.0,39,0.00,,---,0.01,VWS V14.01,2013-04-14 23:58:00,
2013-04-14 19:03:00,54.4,27.3,29.68,SE,146,17.0,25.0,35,0.00,,---,0.01,VWS V14.01,2013-04-15 00:03:00,
2013-04-14 19:08:00,54.4,28.7,29.68,SSE,154,9.0,23.0,37,0.00,,---,0.01,VWS V14.01,2013-04-15 00:08:00,
2013-04-14 19:13:00,54.3,27.2,29.68,ESE,123,14.0,25.0,35,0.00,,---,0.01,VWS V14.01,2013-04-15 00:13:00,
2013-04-14 19:18:00,54.0,26.3,29.68,SSE,153,12.0,25.0,34,0.00,,---,0.01,VWS V14.01,2013-04-15 00:18:00,
2013-04-14 19:23:00,53.7,26.0,29.68,SE,126,9.0,25.0,34,0.00,,---,0.01,VWS V14.01,2013-04-15 00:23:00,
2013-04-14 19:28:00,53.6,25.9,29.68,SE,129,11.0,25.0,34,0.00,,---,0.01,VWS V14.01,2013-04-15 00:28:00,
2013-04-14 19:33:00,53.3,27.0,29.69,SE,126,7.0,25.0,36,0.00,,---,0.01,VWS V14.01,2013-04-15 00:33:00,
2013-04-14 19:38:00,53.0,27.4,29.69,SSE,159,8.0,15.0,37,0.00,,---,0.01,VWS V14.01,2013-04-15 00:38:00,
2013-04-14 19:43:00,52.7,26.5,29.70,SE,142,11.0,20.0,36,0.00,,---,0.01,VWS V14.01,2013-04-15 00:43:00,
2013-04-14 19:48:00,52.4,26.2,29.70,ESE,113,13.0,20.0,36,0.00,,---,0.01,VWS V14.01,2013-04-15 00:48:00,
2013-04-14 19:53:00,51.9,26.5,29.70,ESE,119,7.0,20.0,37,0.00,,---,0.01,VWS V14.01,2013-04-15 00:53:00,
2013-04-14 19:58:00,51.5,26.1,29.71,SE,127,9.0,20.0,37,0.00,,---,0.01,VWS V14.01,2013-04-15 00:58:00,
2013-04-14 20:03:00,51.0,26.3,29.71,SSE,156,4.0,20.0,38,0.00,,---,0.01,VWS V14.01,2013-04-15 01:03:00,
2013-04-14 20:08:00,50.6,26.6,29.71,SE,132,6.0,16.0,39,0.00,,---,0.01,VWS V14.01,2013-04-15 01:08:00,
2013-04-14 20:13:00,50.1,26.7,29.71,ESE,122,8.0,16.0,40,0.00,,---,0.01,VWS V14.01,2013-04-15 01:13:00,
2013-04-14 20:18:00,49.8,26.5,29.72,SE,130,8.0,16.0,40,0.00,,---,0.01,VWS V14.01,2013-04-15 01:18:00,
2013-04-14 20:23:00,49.6,26.3,29.72,ESE,123,8.0,16.0,40,0.00,,---,0.01,VWS V14.01,2013-04-15 01:23:00,
2013-04-14 20:28:00,49.2,25.9,29.72,ESE,116,7.0,16.0,40,0.00,,---,0.01,VWS V14.01,2013-04-15 01:28:00,
2013-04-14 20:33:00,49.0,26.3,29.72,ESE,106,5.0,16.0,41,0.00,,---,0.01,VWS V14.01,2013-04-15 01:33:00,
2013-04-14 20:38:00,48.5,26.5,29.72,ESE,117,4.0,9.0,42,0.00,,---,0.01,VWS V14.01,2013-04-15 01:38:00,
2013-04-14 20:43:00,48.1,26.7,29.73,East,98,4.0,10.0,43,0.00,,---,0.01,VWS V14.01,2013-04-15 01:43:00,
2013-04-14 20:48:00,47.6,27.3,29.73,ESE,114,5.0,10.0,45,0.00,,---,0.01,VWS V14.01,2013-04-15 01:48:00,
2013-04-14 20:53:00,47.2,27.5,29.73,ESE,117,2.0,10.0,46,0.00,,---,0.01,VWS V14.01,2013-04-15 01:53:00,
2013-04-14 20:58:00,46.6,28.5,29.74,East,99,2.0,10.0,49,0.00,,---,0.01,VWS V14.01,2013-04-15 01:58:00,
2013-04-14 21:03:00,46.3,27.7,29.74,ESE,105,4.0,10.0,48,0.00,,---,0.01,VWS V14.01,2013-04-15 02:03:00,
2013-04-14 21:08:00,46.0,27.9,29.73,ESE,117,3.0,7.0,49,0.00,,---,0.01,VWS V14.01,2013-04-15 02:08:00,
2013-04-14 21:13:00,45.7,28.1,29.74,ESE,114,5.0,7.0,50,0.00,,---,0.01,VWS V14.01,2013-04-15 02:13:00,
2013-04-14 21:18:00,45.6,28.0,29.75,ESE,120,6.0,10.0,50,0.00,,---,0.01,VWS V14.01,2013-04-15 02:18:00,
2013-04-14 21:23:00,45.4,27.9,29.75,ESE,108,7.0,11.0,50,0.00,,---,0.01,VWS V14.01,2013-04-15 02:23:00,
2013-04-14 21:28:00,45.3,28.2,29.75,East,101,4.0,11.0,51,0.00,,---,0.01,VWS V14.01,2013-04-15 02:28:00,
2013-04-14 21:33:00,45.2,27.7,29.75,SE,130,6.0,11.0,50,0.00,,---,0.01,VWS V14.01,2013-04-15 02:33:00,
2013-04-14 21:38:00,45.2,27.7,29.75,ESE,103,7.0,9.0,50,0.00,,---,0.01,VWS V14.01,2013-04-15 02:38:00,
2013-04-14 21:43:00,45.0,27.5,29.75,ESE,121,4.0,9.0,50,0.00,,---,0.01,VWS V14.01,2013-04-15 02:43:00,
2013-04-14 21:48:00,44.5,28.0,29.75,ESE,118,3.0,9.0,52,0.00,,---,0.01,VWS V14.01,2013-04-15 02:48:00,
2013-04-14 21:53:00,44.1,27.6,29.75,East,85,6.0,9.0,52,0.00,,---,0.01,VWS V14.01,2013-04-15 02:53:00,
2013-04-14 21:58:00,43.9,27.9,29.76,ESE,114,3.0,9.0,53,0.00,,---,0.01,VWS V14.01,2013-04-15 02:58:00,
2013-04-14 22:03:00,43.6,27.6,29.76,SE,131,5.0,9.0,53,0.00,,---,0.01,VWS V14.01,2013-04-15 03:03:00,
2013-04-14 22:08:00,43.3,27.8,29.76,ESE,114,5.0,9.0,54,0.00,,---,0.01,VWS V14.01,2013-04-15 03:08:00,
2013-04-14 22:13:00,43.1,27.6,29.77,ESE,113,3.0,9.0,54,0.00,,---,0.01,VWS V14.01,2013-04-15 03:13:00,
2013-04-14 22:18:00,42.8,27.8,29.77,ESE,123,3.0,9.0,55,0.00,,---,0.01,VWS V14.01,2013-04-15 03:18:00,
2013-04-14 22:23:00,42.6,27.6,29.77,ESE,117,4.0,9.0,55,0.00,,---,0.01,VWS V14.01,2013-04-15 03:23:00,
2013-04-14 22:28:00,42.3,27.7,29.77,ESE,111,4.0,11.0,56,0.00,,---,0.01,VWS V14.01,2013-04-15 03:28:00,
2013-04-14 22:33:00,41.9,27.8,29.78,ESE,105,5.0,11.0,57,0.00,,---,0.01,VWS V14.01,2013-04-15 03:33:00,
2013-04-14 22:38:00,41.7,28.0,29.78,ESE,111,4.0,8.0,58,0.00,,---,0.01,VWS V14.01,2013-04-15 03:38:00,
2013-04-14 22:43:00,41.6,27.9,29.78,SE,135,6.0,11.0,58,0.00,,---,0.01,VWS V14.01,2013-04-15 03:43:00,
2013-04-14 22:48:00,41.5,27.8,29.78,ESE,118,7.0,11.0,58,0.00,,---,0.01,VWS V14.01,2013-04-15 03:48:00,
2013-04-14 22:53:00,41.9,27.4,29.78,SE,141,8.0,11.0,56,0.00,,---,0.01,VWS V14.01,2013-04-15 03:53:00,
2013-04-14 22:58:00,42.3,26.9,29.78,ESE,123,5.0,11.0,54,0.00,,---,0.01,VWS V14.01,2013-04-15 03:58:00,
2013-04-14 23:00:00,42.3,26.9,29.78,ESE,121,6.0,11.0,54,0.00,,---,0.01,VWS V14.01,2013-04-15 04:00:00,
2013-04-14 23:05:00,42.3,26.9,29.78,ESE,114,4.0,8.0,54,0.00,,---,0.01,VWS V14.01,2013-04-15 04:05:00,
2013-04-14 23:10:00,42.1,27.1,29.78,East,98,4.0,8.0,55,0.00,,---,0.01,VWS V14.01,2013-04-15 04:10:00,
2013-04-14 23:15:00,42.0,27.0,29.78,ESE,116,7.0,8.0,55,0.00,,---,0.01,VWS V14.01,2013-04-15 04:15:00,
2013-04-14 23:20:00,42.1,26.7,29.78,ESE,123,8.0,9.0,54,0.00,,---,0.01,VWS V14.01,2013-04-15 04:20:00,
2013-04-14 23:25:00,42.4,26.5,29.78,East,101,7.0,10.0,53,0.00,,---,0.01,VWS V14.01,2013-04-15 04:25:00,
2013-04-14 23:30:00,42.5,26.6,29.78,SE,124,4.0,10.0,53,0.00,,---,0.01,VWS V14.01,2013-04-15 04:30:00,
2013-04-14 23:35:00,42.3,26.9,29.78,ESE,109,3.0,6.0,54,0.00,,---,0.01,VWS V14.01,2013-04-15 04:35:00,
2013-04-14 23:40:00,42.0,27.0,29.78,ESE,117,3.0,6.0,55,0.00,,---,0.01,VWS V14.01,2013-04-15 04:40:00,
2013-04-14 23:45:00,41.7,27.2,29.79,ESE,115,3.0,6.0,56,0.00,,---,0.01,VWS V14.01,2013-04-15 04:45:00,
2013-04-14 23:50:00,41.5,27.4,29.78,SE,124,5.0,7.0,57,0.00,,---,0.01,VWS V14.01,2013-04-15 04:50:00,
2013-04-14 23:55:00,41.3,27.2,29.78,ESE,120,6.0,8.0,57,0.00,,---,0.01,VWS V14.01,2013-04-15 04:55:00,